Portada
METAR-TAF:

METAR-TAF

Aeroports :

Acajutla, El Salvador

latitud: 13-34N, longitud: 089-50W, altitud: 15 m

Observació

L'informe es va fer fa 6 hores i 22 minuts, a les 05:50 UTC
Vent 6 kt del Nord
Temperatura 27°C
Humitat 79%
Pressió 1009 hPa
Visibilitat 10 km o més
sense núvols per sota de 1500 mi sense presència de cumulonimbus.

METAR: MSAC 180550Z 36006KT CAVOK 27/23 Q1008 A2979

Hora: 06:12 (12:12 UTC)


TAF: manca

Observacions i pronòstics meteorològics de més de 4000 aeroports (METAR i TAF).

Les estacions disponibles són els punts grocs i vermells al mapa.

Posi el ratolí al punt desitjat per veure el nom de l'estació.

Feu clic per veure les observacions i els pronòstics meteorològics.

Per canviar el mapa: feu clic els botons verds amb una creu de color negre per apropar; al botó verd amb un guió per allunyar la imatge; o en les fletxes verdes per a mapes adjacents.


METAR-TAF: